Time,TemperatureF,DewpointF,PressureIn,WindDirection,WindDirectionDegrees,WindSpeedMPH,WindSpeedGustMPH,Humidity,HourlyPrecipIn,Conditions,Clouds,dailyrainin,SoftwareType,DateUTC
2013-08-03 00:13:00,52.7,52.2,30.01,ESE,112,0.0,-999.0,98,-99.99,,,0.00,Acu-Link.com,2013-08-03 07:13:00,
2013-08-03 00:29:00,52.5,52.0,30.01,ESE,112,0.0,-999.0,98,-99.99,,,0.00,Acu-Link.com,2013-08-03 07:29:00,
2013-08-03 00:44:00,52.3,51.8,30.01,ESE,112,0.0,-999.0,98,-99.99,,,0.00,Acu-Link.com,2013-08-03 07:44:00,
2013-08-03 00:59:00,52.2,51.7,30.01,ESE,112,0.0,-999.0,98,-99.99,,,0.00,Acu-Link.com,2013-08-03 07:59:00,
2013-08-03 01:15:00,52.0,51.5,30.02,ESE,112,0.0,-999.0,98,-99.99,,,0.00,Acu-Link.com,2013-08-03 08:15:00,
2013-08-03 01:30:00,52.0,51.5,30.01,ESE,112,0.0,-999.0,98,-99.99,,,0.00,Acu-Link.com,2013-08-03 08:30:00,
2013-08-03 01:45:00,52.3,51.8,30.00,ESE,112,0.0,-999.0,98,-99.99,,,0.00,Acu-Link.com,2013-08-03 08:45:00,
2013-08-03 02:00:00,53.1,52.5,30.00,ESE,112,0.0,-999.0,98,-99.99,,,0.00,Acu-Link.com,2013-08-03 09:00:00,
2013-08-03 02:16:00,53.6,53.0,30.00,ESE,112,0.0,-999.0,98,-99.99,,,0.00,Acu-Link.com,2013-08-03 09:16:00,
2013-08-03 02:31:00,54.1,53.5,30.00,SE,135,0.0,-999.0,98,-99.99,,,0.00,Acu-Link.com,2013-08-03 09:31:00,
2013-08-03 02:46:00,54.1,53.5,30.00,ESE,112,0.0,-999.0,98,-99.99,,,0.00,Acu-Link.com,2013-08-03 09:46:00,
2013-08-03 03:02:00,54.3,53.7,30.01,SE,135,0.0,-999.0,98,-99.99,,,0.00,Acu-Link.com,2013-08-03 10:02:00,
2013-08-03 03:17:00,54.5,53.9,29.99,NE,45,0.0,-999.0,98,-99.99,,,0.00,Acu-Link.com,2013-08-03 10:17:00,
2013-08-03 03:32:00,54.3,53.7,29.99,SW,225,0.0,-999.0,98,-99.99,,,0.00,Acu-Link.com,2013-08-03 10:32:00,
2013-08-03 03:48:00,54.0,53.4,30.00,SE,135,0.0,-999.0,98,-99.99,,,0.00,Acu-Link.com,2013-08-03 10:48:00,
2013-08-03 04:03:00,53.6,53.0,30.01,East,90,0.0,-999.0,98,-99.99,,,0.00,Acu-Link.com,2013-08-03 11:03:00,
2013-08-03 04:18:00,53.4,52.8,30.00,ESE,112,0.0,-999.0,98,-99.99,,,0.00,Acu-Link.com,2013-08-03 11:18:00,
2013-08-03 04:33:00,53.4,52.8,30.01,NNE,22,0.0,-999.0,98,-99.99,,,0.00,Acu-Link.com,2013-08-03 11:33:00,
2013-08-03 04:49:00,53.2,52.6,30.01,NE,45,0.0,-999.0,98,-99.99,,,0.00,Acu-Link.com,2013-08-03 11:49:00,
2013-08-03 05:04:00,53.2,52.6,29.99,North,0,0.0,-999.0,98,-99.99,,,0.00,Acu-Link.com,2013-08-03 12:04:00,
2013-08-03 05:20:00,53.1,52.5,30.00,East,90,0.0,-999.0,98,-99.99,,,0.00,Acu-Link.com,2013-08-03 12:20:00,
2013-08-03 05:35:00,52.9,52.4,30.01,ESE,112,0.0,-999.0,98,-99.99,,,0.00,Acu-Link.com,2013-08-03 12:35:00,
2013-08-03 05:50:00,52.9,52.4,29.99,SE,135,0.0,-999.0,98,-99.99,,,0.00,Acu-Link.com,2013-08-03 12:50:00,
2013-08-03 06:06:00,52.9,52.4,30.00,SE,135,0.0,-999.0,98,-99.99,,,0.00,Acu-Link.com,2013-08-03 13:06:00,
2013-08-03 06:36:00,53.1,52.5,30.00,ESE,112,0.0,-999.0,98,-99.99,,,0.00,Acu-Link.com,2013-08-03 13:36:00,
2013-08-03 06:52:00,53.1,52.5,30.00,ESE,112,2.2,-999.0,98,-99.99,,,0.00,Acu-Link.com,2013-08-03 13:52:00,
2013-08-03 07:07:00,53.2,52.6,30.01,SE,135,0.0,-999.0,98,-99.99,,,0.00,Acu-Link.com,2013-08-03 14:07:00,
2013-08-03 07:22:00,53.6,53.0,30.01,South,180,0.0,-999.0,98,-99.99,,,0.00,Acu-Link.com,2013-08-03 14:22:00,
2013-08-03 07:38:00,54.5,53.9,30.01,NW,315,0.0,-999.0,98,-99.99,,,0.00,Acu-Link.com,2013-08-03 14:38:00,
2013-08-03 07:53:00,54.9,54.3,30.00,South,180,2.2,-999.0,98,-99.99,,,0.00,Acu-Link.com,2013-08-03 14:53:00,
2013-08-03 08:08:00,55.6,54.8,30.00,ESE,112,0.0,-999.0,97,-99.99,,,0.00,Acu-Link.com,2013-08-03 15:08:00,
2013-08-03 08:24:00,56.5,54.8,30.00,North,0,3.2,-999.0,94,-99.99,,,0.00,Acu-Link.com,2013-08-03 15:24:00,
2013-08-03 08:39:00,57.2,55.2,30.01,NNE,22,2.2,-999.0,93,-99.99,,,0.00,Acu-Link.com,2013-08-03 15:39:00,
2013-08-03 08:54:00,58.5,55.6,30.02,NE,45,0.0,-999.0,90,-99.99,,,0.00,Acu-Link.com,2013-08-03 15:54:00,
2013-08-03 09:09:00,59.4,56.2,30.01,WNW,292,0.0,-999.0,89,-99.99,,,0.00,Acu-Link.com,2013-08-03 16:09:00,
2013-08-03 09:25:00,58.8,56.2,29.99,West,270,0.0,-999.0,91,-99.99,,,0.00,Acu-Link.com,2013-08-03 16:25:00,
2013-08-03 09:40:00,62.1,57.5,30.01,NNW,337,2.7,-999.0,85,-99.99,,,0.00,Acu-Link.com,2013-08-03 16:40:00,
2013-08-03 09:55:00,63.3,58.0,29.99,SW,225,3.7,-999.0,83,-99.99,,,0.00,Acu-Link.com,2013-08-03 16:55:00,
2013-08-03 10:11:00,63.7,58.8,29.99,SSE,157,2.7,-999.0,84,-99.99,,,0.00,Acu-Link.com,2013-08-03 17:11:00,
2013-08-03 10:26:00,65.3,59.0,29.98,WSW,247,1.7,-999.0,80,-99.99,,,0.00,Acu-Link.com,2013-08-03 17:26:00,
2013-08-03 11:12:00,72.0,61.7,29.97,NW,315,4.2,-999.0,70,-99.99,,,0.00,Acu-Link.com,2013-08-03 18:12:00,
2013-08-03 11:30:00,73.6,61.5,29.97,SW,225,3.7,-999.0,66,-99.99,,,0.00,Acu-Link.com,2013-08-03 18:30:00,
2013-08-03 11:45:00,74.8,61.3,29.96,NNE,22,4.7,-999.0,63,-99.99,,,0.00,Acu-Link.com,2013-08-03 18:45:00,
2013-08-03 12:01:00,76.1,61.7,29.95,NNW,337,5.8,-999.0,61,-99.99,,,0.00,Acu-Link.com,2013-08-03 19:01:00,
2013-08-03 12:31:00,77.5,62.0,29.94,NW,315,3.7,-999.0,59,-99.99,,,0.00,Acu-Link.com,2013-08-03 19:31:00,
2013-08-03 12:47:00,78.3,62.3,29.95,NE,45,4.2,-999.0,58,-99.99,,,0.00,Acu-Link.com,2013-08-03 19:47:00,
2013-08-03 13:02:00,77.9,61.9,29.94,NNW,337,5.3,-999.0,58,-99.99,,,0.00,Acu-Link.com,2013-08-03 20:02:00,
2013-08-03 13:17:00,78.6,62.1,29.92,WNW,292,2.7,-999.0,57,-99.99,,,0.00,Acu-Link.com,2013-08-03 20:17:00,
2013-08-03 13:32:00,77.7,62.2,29.91,ESE,112,3.2,-999.0,59,-99.99,,,0.00,Acu-Link.com,2013-08-03 20:32:00,
2013-08-03 13:48:00,79.0,62.4,29.92,NNE,22,6.3,-999.0,57,-99.99,,,0.00,Acu-Link.com,2013-08-03 20:48:00,
2013-08-03 14:03:00,76.3,61.4,29.93,SSE,157,6.3,-999.0,60,-99.99,,,0.00,Acu-Link.com,2013-08-03 21:03:00,
2013-08-03 14:18:00,77.2,61.3,29.92,WNW,292,3.7,-999.0,58,-99.99,,,0.00,Acu-Link.com,2013-08-03 21:18:00,
2013-08-03 14:33:00,76.1,61.2,29.92,NNE,22,5.8,-999.0,60,-99.99,,,0.00,Acu-Link.com,2013-08-03 21:33:00,
2013-08-03 14:48:00,75.9,60.5,29.91,NNE,22,5.8,-999.0,59,-99.99,,,0.00,Acu-Link.com,2013-08-03 21:48:00,
2013-08-03 15:04:00,74.7,60.8,29.92,WNW,292,6.3,-999.0,62,-99.99,,,0.00,Acu-Link.com,2013-08-03 22:04:00,
2013-08-03 15:19:00,75.6,60.7,29.91,North,0,4.2,-999.0,60,-99.99,,,0.00,Acu-Link.com,2013-08-03 22:19:00,
2013-08-03 15:34:00,75.2,60.3,29.92,West,270,4.7,-999.0,60,-99.99,,,0.00,Acu-Link.com,2013-08-03 22:34:00,
2013-08-03 15:49:00,74.7,59.9,29.91,North,0,3.2,-999.0,60,-99.99,,,0.00,Acu-Link.com,2013-08-03 22:49:00,
2013-08-03 16:04:00,74.3,59.5,29.90,NNE,22,6.3,-999.0,60,-99.99,,,0.00,Acu-Link.com,2013-08-03 23:04:00,
2013-08-03 16:20:00,74.5,60.2,29.90,WSW,247,3.7,-999.0,61,-99.99,,,0.00,Acu-Link.com,2013-08-03 23:20:00,
2013-08-03 16:34:00,74.1,60.2,29.89,West,270,8.9,-999.0,62,-99.99,,,0.00,Acu-Link.com,2013-08-03 23:34:00,
2013-08-03 16:50:00,74.7,59.9,29.91,NNE,22,4.7,-999.0,60,-99.99,,,0.00,Acu-Link.com,2013-08-03 23:50:00,
2013-08-03 17:05:00,73.6,60.2,29.89,NNW,337,4.7,-999.0,63,-99.99,,,0.00,Acu-Link.com,2013-08-04 00:05:00,
2013-08-03 17:21:00,72.5,59.6,29.91,NNE,22,8.3,-999.0,64,-99.99,,,0.00,Acu-Link.com,2013-08-04 00:21:00,
2013-08-03 17:36:00,72.5,59.2,29.89,NE,45,4.2,-999.0,63,-99.99,,,0.00,Acu-Link.com,2013-08-04 00:36:00,
2013-08-03 18:06:00,72.3,59.4,29.90,North,0,2.2,-999.0,64,-99.99,,,0.00,Acu-Link.com,2013-08-04 01:06:00,
2013-08-03 18:21:00,71.2,57.9,29.88,WNW,292,3.7,-999.0,63,-99.99,,,0.00,Acu-Link.com,2013-08-04 01:21:00,
2013-08-03 18:37:00,70.5,58.2,29.89,ENE,67,3.7,-999.0,65,-99.99,,,0.00,Acu-Link.com,2013-08-04 01:37:00,
2013-08-03 18:52:00,70.3,58.4,29.88,West,270,3.7,-999.0,66,-99.99,,,0.00,Acu-Link.com,2013-08-04 01:52:00,
2013-08-03 19:07:00,68.9,57.9,29.89,ENE,67,5.3,-999.0,68,-99.99,,,0.00,Acu-Link.com,2013-08-04 02:07:00,
2013-08-03 19:23:00,67.5,57.8,29.89,West,270,4.2,-999.0,71,-99.99,,,0.00,Acu-Link.com,2013-08-04 02:23:00,
2013-08-03 19:38:00,66.0,57.1,29.89,NNE,22,3.2,-999.0,73,-99.99,,,0.00,Acu-Link.com,2013-08-04 02:38:00,
2013-08-03 19:53:00,65.7,57.2,29.89,West,270,4.2,-999.0,74,-99.99,,,0.00,Acu-Link.com,2013-08-04 02:53:00,
2013-08-03 20:09:00,64.6,56.9,29.90,NNE,22,4.2,-999.0,76,-99.99,,,0.00,Acu-Link.com,2013-08-04 03:09:00,
2013-08-03 20:24:00,62.4,56.1,29.90,NNE,22,2.2,-999.0,80,-99.99,,,0.00,Acu-Link.com,2013-08-04 03:24:00,
2013-08-03 20:39:00,61.3,56.1,29.91,WSW,247,1.7,-999.0,83,-99.99,,,0.00,Acu-Link.com,2013-08-04 03:39:00,
2013-08-03 20:55:00,59.9,55.7,29.91,NW,315,2.7,-999.0,86,-99.99,,,0.00,Acu-Link.com,2013-08-04 03:55:00,
2013-08-03 21:10:00,59.2,55.3,29.92,North,0,0.0,-999.0,87,-99.99,,,0.00,Acu-Link.com,2013-08-04 04:10:00,
2013-08-03 21:25:00,58.3,55.1,29.92,North,0,2.2,-999.0,89,-99.99,,,0.00,Acu-Link.com,2013-08-04 04:25:00,
2013-08-03 21:40:00,57.9,55.0,29.92,NNE,22,1.7,-999.0,90,-99.99,,,0.00,Acu-Link.com,2013-08-04 04:40:00,
2013-08-03 21:55:00,57.7,55.1,29.93,NNE,22,2.7,-999.0,91,-99.99,,,0.00,Acu-Link.com,2013-08-04 04:55:00,
2013-08-03 22:26:00,57.9,55.3,29.94,West,270,0.0,-999.0,91,-99.99,,,0.00,Acu-Link.com,2013-08-04 05:26:00,
2013-08-03 22:42:00,57.9,55.3,29.93,NE,45,0.0,-999.0,91,-99.99,,,0.00,Acu-Link.com,2013-08-04 05:42:00,
2013-08-03 22:57:00,57.9,55.3,29.92,West,270,2.2,-999.0,91,-99.99,,,0.00,Acu-Link.com,2013-08-04 05:57:00,
2013-08-03 23:18:00,58.1,55.5,29.94,NNE,22,2.2,-999.0,91,-99.99,,,0.00,Acu-Link.com,2013-08-04 06:18:00,
2013-08-03 23:39:00,57.9,55.3,29.93,North,0,0.0,-999.0,91,-99.99,,,0.00,Acu-Link.com,2013-08-04 06:39:00,
2013-08-03 23:55:00,57.9,55.3,29.93,NNE,22,2.2,-999.0,91,-99.99,,,0.00,Acu-Link.com,2013-08-04 06:55:00,